Current Conditions
Cielo Sereno
Condizioni




Pressure
1016.92 (mb) - 30.03 (inHG)
Visibility

10.0 (km) - 6.2 (miles)
   Temperature
20  °C
68°F
16  °C
Dewpoint
78  %
 Humidity
   Wind Speed
2  km/h
1  kts
1  mph
0.4  m/s
   Wind Direction
Calm
Due North
   Airport Data
LIRQ
Location Peretola Airport 29.50 km (18.33 mi)
Metar :LIRQ 080250Z AUTO VRB01KT 9999 NCD 20/16 Q1017
Sat 8th August 03:50 am
   Raw Metar Info
Raw METAR is the most common format in the world for the transmission of observational weather data. It is highly standardized through the International Civil Aviation Organization (ICAO), which allows it to be understood throughout most of the world.
   API Info
Data Provided by
https://www.checkwx.com/weather/LIRQ
   © Info
CSS/SVG/PHP scripts were developed by weather34.com for use in the weather34 template © 2015-2020

Guide Info provided by Metar-Wikipedia